2021-091E (49319 NORAD) Tracking and Keplerian Element Data

This shows tracking and keplerian element data for the satellite.

Feedback or suggestion? Click here.




ElementValue
Catalog49319
Name2021-091E
Epoch Orbit798
Epoch Day340.13274579
Epoch Year2021
RAAN165.1818
Inclination97.4601
Eccentricity0.001831
Argument of Perigee83.3408
Mean Anonmoly55.3409
Mean Motion15.17799803
Decay Rate1.346E-05
L11 49319U 21091E 21340.13274579 .00001346 00000+0 69676-4 0 9998
L22 49319 97.4601 165.1818 0018310 83.3408 55.3409 15.17799803 7984

Live tracking and technical data element details for 2021-091E (NORAD 49319). 2021-091E can be tracked NOW for your location showing map with azimuth and elevation plus other details from your city location.

Track the satellite on the map from your city or location and see movement details for azimuth, elevation, latitude, longitude, range, height, and movement on the map or in text.







IsCatalogInMostPopularTable: catalog: 49319, numindb: 6
Update: records affected: 1



GetName: 49319 2021-091E

Hit Count: updated at: Mon, 06 Dec 2021 15:38:46 GMT